[[{"header":{"parameterUnit":"m.s-1","parameterCategory":1,"la1":30.2991,"la2":30.254,"lo1":-89.0895,"lo2":-89.0444,"dy":0.0017,"dx":0.0017,"nx":28,"ny":28,"refTime":"2023-10-03T09:00:00:Z","depth":0,"parameterNumber":2,"parameterNumberName":"U-component_of_WINDS"},"data":[0,0,0,0,0,0,0,0,0,0,0,0,0,0,0,0,0,0,0,0,0,0,0,0,0,0,0,0,0,0,0,0,0,0,0,0,0,0,0,0,0,0,0,0,0,0,0,0,0,0,0,0,0,0,0,0,0,0,-5.36,-5.3599,0,-5.3585,-5.3585,-5.3584,-5.3482,-5.348,-5.3477,-5.3475,-5.346,-5.3462,-5.3464,0,0,0,0,0,0,0,0,0,0,0,0,0,-5.3542,-5.3544,-5.36,-5.3599,-5.3599,-5.3585,-5.3585,-5.3584,-5.3483,-5.348,-5.3476,-5.3474,-5.346,-5.3462,-5.3464,0,0,0,0,0,0,0,0,0,0,0,0,0,-5.3551,-5.3544,-5.36,-5.3547,-5.3542,-5.3585,-5.3585,-5.3584,-5.3483,-5.3479,-5.3476,-5.3472,-5.3459,-5.3462,-5.3465,-5.3557,0,0,-5.3474,-5.3475,0,0,0,0,0,0,0,0,-5.3551,-5.3553,-5.3555,-5.355,-5.3545,-5.3531,-5.3559,-5.3575,-5.3484,-5.3506,-5.3475,-5.347,-5.3487,-5.3487,-5.3493,-5.3557,-5.3556,-5.3474,-5.3476,-5.3477,-5.3478,0,0,0,0,0,0,0,-5.355,-5.3553,-5.3594,-5.3555,-5.3549,-5.3524,-5.3522,-5.3561,-5.3518,-5.3503,-5.3496,-5.3496,-5.3484,-5.349,-5.3492,-5.3556,-5.3474,-5.3476,-5.3478,-5.3479,-5.3696,-5.37,0,0,0,0,0,0,-5.3557,-5.3554,-5.3594,-5.3593,-5.3539,-5.3529,-5.3525,-5.354,-5.3517,-5.351,-5.3499,-5.3491,-5.3487,-5.3488,-5.3491,-5.3597,-5.3477,-5.3479,-5.3481,-5.3692,-5.3697,-5.3701,0,0,0,0,0,0,-5.3556,-5.3561,-5.3595,-5.3571,-5.3574,-5.3533,-5.355,-5.3541,-5.3548,-5.3513,-5.3505,-5.3513,-5.3484,-5.3487,-5.3542,-5.3595,-5.3481,-5.3483,-5.3687,-5.3693,-5.3699,-5.3812,0,0,0,0,0,0,-5.3555,-5.3562,-5.3596,-5.3573,-5.3575,-5.3645,-5.3554,-5.3544,-5.3553,-5.3542,-5.3525,-5.3518,-5.3482,-5.3538,-5.3545,-5.3597,-5.3486,-5.3682,-5.369,-5.3697,-5.3803,-5.3821,-5.3836,0,0,0,0,0,-5.3553,-5.3628,-5.3598,-5.3604,-5.3617,-5.3649,-5.365,-5.3606,-5.3558,-5.3592,-5.357,-5.3519,-5.3589,-5.3544,-5.3551,-5.3605,-5.3679,-5.3688,-5.3697,-5.3795,-5.3817,-5.3836,0,0,0,0,0,0,-5.3658,-5.3624,-5.359,-5.366,-5.3658,-5.3631,-5.3673,-5.3631,-5.3642,-5.3632,-5.3577,-5.3574,-5.3637,-5.3627,-5.3578,-5.3695,-5.3625,-5.3636,-5.3698,-5.3718,-5.3735,-5.3735,-5.3488,0,0,0,0,0,-5.369,-5.3718,-5.3687,-5.3751,-5.3752,-5.3714,-5.3725,-5.3692,-5.3688,-5.3686,-5.3668,-5.3666,-5.3688,-5.3703,-5.3721,-5.3802,-5.3797,-5.3843,-5.386,-5.3874,-5.3883,-5.3925,-5.3945,-5.3731,-5.3731,-5.3731,0,0,-5.3754,-5.3739,-5.376,-5.3772,-5.3766,-5.3797,-5.3713,-5.3749,-5.3771,-5.3691,-5.3741,-5.3729,-5.3724,-5.3792,-5.3821,-5.3786,-5.3941,-5.3885,-5.3896,-5.3898,-5.3936,-5.3956,-5.3974,-5.3737,-5.3736,-5.3735,0,0,-5.3887,-5.3879,-5.3932,-5.3929,-5.3921,-5.3895,-5.3909,-5.3889,-5.3877,-5.3927,-5.3869,-5.3895,-5.3934,-5.3932,-5.3936,-5.4072,-5.4025,-5.408,-5.4165,-5.4207,-5.4224,-5.4238,-5.4286,-5.4303,-5.409,-5.409,-5.4091,0,-5.3968,-5.4011,-5.3964,-5.4004,-5.4011,-5.3942,-5.3995,-5.3995,-5.3994,-5.4001,-5.3962,-5.4009,-5.4001,-5.4067,-5.4101,-5.4107,-5.412,-5.408,-5.4225,-5.4239,-5.4252,-5.4297,-5.4315,-5.4097,-5.4096,-5.4095,-5.4095,0,-5.411,-5.4142,-5.4185,-5.4186,-5.4199,-5.4246,-5.4207,-5.4225,-5.4192,-5.4171,-5.4223,-5.4212,-5.4226,-5.424,-5.4208,-5.4303,-5.4281,-5.4235,-5.4163,-5.428,-5.4321,-5.4337,-5.4106,-5.4104,-5.4102,-5.41,0,0,-5.4305,-5.4282,-5.4298,-5.4298,-5.4287,-5.431,-5.4355,-5.4369,-5.4386,-5.439,-5.4425,-5.446,-5.4418,-5.4423,-5.4391,-5.4428,-5.4535,-5.4376,-5.4375,-5.4404,-5.4638,-5.4671,-5.4691,-5.4505,-5.4509,-5.4511,-5.4638,0,-5.4431,-5.4503,-5.4464,-5.4543,-5.4571,-5.4508,-5.4546,-5.4544,-5.4527,-5.4549,-5.453,-5.4555,-5.4498,-5.45,-5.4534,-5.4515,-5.4581,-5.4505,-5.4537,-5.4539,-5.4537,-5.4713,-5.4747,-5.4867,-5.4654,-5.4656,-5.4658,0,-5.4586,-5.4596,-5.4677,-5.4662,-5.4672,-5.4707,-5.4718,-5.474,-5.4737,-5.4722,-5.4729,-5.4689,-5.4732,-5.4664,-5.4723,-5.4673,-5.4684,-5.4677,-5.4681,-5.4679,-5.4603,-5.4714,-5.4905,-5.4922,-5.4683,-5.4681,-5.4679,0,-5.4717,-5.4752,-5.4804,-5.4807,-5.479,-5.4817,-5.4811,-5.4805,-5.4816,-5.4827,-5.4833,-5.4849,-5.4857,-5.487,-5.4835,-5.479,-5.4899,-5.4828,-5.4886,-5.4887,-5.4909,-5.4908,-5.5102,-5.4922,-5.4922,-5.4921,-5.4921,0,-5.486,-5.4912,-5.4863,-5.4895,-5.4952,-5.4908,-5.4966,-5.4954,-5.4949,-5.4978,-5.4926,-5.4955,-5.4908,-5.4933,-5.4907,-5.4959,-5.4963,-5.4952,-5.4943,-5.4955,-5.4956,-5.4959,-5.4948,-5.4926,-5.4925,-5.4924,-5.4923,0,-5.5014,-5.4984,-5.5037,-5.5018,-5.5015,-5.5057,-5.5041,-5.5071,-5.5051,-5.5089,-5.5096,-5.5065,-5.5091,-5.5059,-5.5082,-5.5065,-5.5135,-5.5116,-5.5136,-5.5129,-5.5188,-5.5182,-5.5388,-5.5413,-5.522,-5.5222,-5.5224,0,-5.5105,-5.5143,-5.5129,-5.5145,-5.5143,-5.517,-5.5181,-5.5141,-5.5155,-5.5157,-5.5186,-5.5208,-5.5223,-5.5269,-5.5249,-5.5267,-5.5246,-5.5318,-5.5248,-5.5258,-5.5244,-5.5241,-5.5244,-5.533,-5.5333,-5.5335,-5.5336,0,-5.527,-5.5254,-5.5272,-5.5287,-5.5303,-5.5312,-5.5318,-5.5334,-5.5292,-5.5312,-5.5338,-5.535,-5.5375,-5.5397,-5.5411,-5.5405,-5.5364,-5.5359,-5.5373,-5.5383,-5.5392,-5.5385,-5.5171,-5.5353,-5.5351,-5.535,-5.5349,-5.5349,-5.5393,-5.5425,-5.542,-5.5443,-5.5443,-5.5451,-5.5477,-5.5462,-5.5483,-5.5499,-5.5475,-5.5508,-5.5506,-5.552,-5.552,-5.5546,-5.5515,-5.5536,-5.554,-5.5545,-5.5553,-5.5391,-5.5548,-5.5548,-5.5547,-5.5547,-5.5546,0,-5.5553,-5.5548,-5.557,-5.558,-5.5598,-5.556,-5.5565,-5.5583,-5.5612,-5.5614,-5.5631,-5.5662,-5.5684,-5.5667,-5.5686,-5.571,-5.5691,-5.5716,-5.5712,-5.5711,-5.5581,-5.5565,-5.5731,-5.573,-5.573,-5.573,-5.573,-5.573,-5.5638,-5.5689,-5.5673,-5.5724,-5.5718,-5.5749,-5.5756,-5.5762,-5.5763,-5.58,-5.5819,-5.5808,-5.5802,-5.5821,-5.584,-5.5834,-5.5843,-5.5874,-5.5862,-5.5739,-5.5721,-5.5703,-5.5688,-5.5877,-5.5877,-5.599,-5.5991,-5.5991]},{"header":{"parameterUnit":"m.s-1","parameterCategory":1,"la1":30.2991,"la2":30.254,"lo1":-89.0895,"lo2":-89.0444,"dy":0.0017,"dx":0.0017,"nx":28,"ny":28,"refTime":"2023-10-03T09:00:00:Z","depth":0,"parameterNumber":3,"parameterNumberName":"V-component_of_WINDS"},"data":[0,0,0,0,0,0,0,0,0,0,0,0,0,0,0,0,0,0,0,0,0,0,0,0,0,0,0,0,0,0,0,0,0,0,0,0,0,0,0,0,0,0,0,0,0,0,0,0,0,0,0,0,0,0,0,0,0,0,1.6745,1.6745,0,1.6752,1.6752,1.6752,1.6813,1.6815,1.6816,1.6818,1.6819,1.6818,1.6816,0,0,0,0,0,0,0,0,0,0,0,0,0,1.6779,1.6778,1.6745,1.6745,1.6745,1.6752,1.6752,1.6752,1.6813,1.6815,1.6817,1.6818,1.682,1.6818,1.6816,0,0,0,0,0,0,0,0,0,0,0,0,0,1.6773,1.6778,1.6745,1.6776,1.6779,1.6752,1.6752,1.6752,1.6812,1.6815,1.6817,1.6819,1.682,1.6818,1.6816,1.6758,0,0,1.681,1.6809,0,0,0,0,0,0,0,0,1.6773,1.6772,1.6771,1.6774,1.6777,1.6784,1.6765,1.6754,1.6812,1.68,1.6818,1.682,1.6805,1.6805,1.6801,1.6758,1.6758,1.681,1.6808,1.6807,1.6807,0,0,0,0,0,0,0,1.6774,1.6772,1.6747,1.6771,1.6775,1.6789,1.679,1.6763,1.6789,1.6801,1.6805,1.6806,1.6807,1.6803,1.6801,1.6758,1.681,1.6808,1.6807,1.6806,1.6668,1.6665,0,0,0,0,0,0,1.677,1.6772,1.6747,1.6748,1.6781,1.6786,1.6788,1.6779,1.679,1.6794,1.6804,1.6808,1.6805,1.6804,1.6801,1.6734,1.6808,1.6806,1.6804,1.667,1.6667,1.6665,0,0,0,0,0,0,1.6771,1.6768,1.6747,1.6761,1.6759,1.6783,1.6773,1.6778,1.6774,1.6792,1.6797,1.6794,1.6807,1.6804,1.6769,1.6735,1.6805,1.6803,1.6673,1.6669,1.6666,1.6597,0,0,0,0,0,0,1.6772,1.6767,1.6746,1.676,1.6758,1.6715,1.6771,1.6777,1.6771,1.6777,1.6784,1.6788,1.6808,1.6771,1.6767,1.6733,1.6801,1.6676,1.6671,1.6667,1.6603,1.6592,1.6583,0,0,0,0,0,1.6773,1.6725,1.6745,1.6741,1.6733,1.6713,1.6712,1.6738,1.6768,1.6746,1.6758,1.6788,1.674,1.6767,1.6762,1.6728,1.6678,1.6673,1.6667,1.6607,1.6594,1.6583,0,0,0,0,0,0,1.6704,1.6727,1.6749,1.6705,1.6707,1.6723,1.6696,1.6723,1.6714,1.672,1.6752,1.6753,1.6712,1.6717,1.6747,1.6672,1.6714,1.6707,1.667,1.6658,1.6648,1.6647,1.6799,0,0,0,0,0,1.6684,1.6668,1.6689,1.6648,1.6648,1.6672,1.6664,1.6685,1.6687,1.6687,1.6696,1.6695,1.6681,1.667,1.6657,1.6605,1.6607,1.6578,1.6568,1.656,1.6553,1.6526,1.6513,1.6647,1.6647,1.6647,0,0,1.6642,1.6653,1.664,1.6634,1.6638,1.6619,1.6672,1.6649,1.6635,1.6683,1.665,1.6657,1.6658,1.6614,1.6595,1.6617,1.6517,1.6553,1.6546,1.6544,1.6519,1.6506,1.6495,1.6643,1.6644,1.6644,0,0,1.6556,1.6563,1.653,1.6533,1.6539,1.6556,1.6548,1.656,1.6567,1.6536,1.6572,1.6555,1.6528,1.6528,1.6524,1.644,1.6467,1.6435,1.6381,1.6355,1.6344,1.6335,1.6304,1.6293,1.6429,1.6429,1.6428,0,1.6502,1.6476,1.6509,1.6484,1.648,1.6526,1.6492,1.6493,1.6493,1.6489,1.6514,1.6483,1.6487,1.6443,1.6423,1.6419,1.641,1.6433,1.6343,1.6335,1.6326,1.6297,1.6286,1.6425,1.6425,1.6425,1.6426,0,1.641,1.6391,1.6364,1.6366,1.6359,1.6329,1.6356,1.6345,1.6367,1.6381,1.6348,1.6355,1.6345,1.6337,1.6356,1.6296,1.6309,1.6338,1.6381,1.6309,1.6282,1.6272,1.6419,1.642,1.6422,1.6422,0,0,1.6277,1.63,1.6289,1.6291,1.6302,1.6287,1.626,1.6253,1.6242,1.6241,1.6219,1.6196,1.6224,1.622,1.6241,1.6217,1.615,1.6249,1.625,1.623,1.6083,1.606,1.6047,1.6169,1.6167,1.6165,1.6083,0,1.6194,1.6151,1.618,1.6131,1.6114,1.6159,1.6135,1.6138,1.6151,1.6138,1.6151,1.6135,1.6173,1.6171,1.615,1.6162,1.612,1.6169,1.6146,1.6145,1.6143,1.6033,1.6009,1.593,1.6073,1.6071,1.607,0,1.609,1.6087,1.6037,1.6053,1.6047,1.6025,1.6021,1.6008,1.6013,1.6024,1.6021,1.6048,1.6021,1.6065,1.6029,1.6061,1.6054,1.6059,1.6056,1.6054,1.6102,1.6026,1.5906,1.5894,1.6054,1.6055,1.6056,0,1.5998,1.5982,1.595,1.595,1.5967,1.5951,1.5957,1.5965,1.5959,1.5955,1.5951,1.5943,1.5938,1.5931,1.5955,1.5985,1.5915,1.5961,1.5922,1.5921,1.5903,1.5904,1.5779,1.5901,1.5901,1.5901,1.5902,0,1.5901,1.5868,1.5909,1.5889,1.5854,1.5888,1.5852,1.5862,1.5869,1.5851,1.5889,1.5871,1.5904,1.589,1.5908,1.5875,1.5873,1.588,1.5885,1.5876,1.5874,1.587,1.5875,1.5898,1.5899,1.5899,1.59,0,1.5791,1.5817,1.5785,1.5806,1.581,1.5783,1.5799,1.5781,1.5798,1.5775,1.5771,1.5796,1.5781,1.5805,1.5792,1.5805,1.5758,1.5772,1.5757,1.5761,1.572,1.5723,1.5587,1.557,1.5704,1.5702,1.5701,0,1.5726,1.5703,1.5721,1.5713,1.5718,1.5704,1.5699,1.5731,1.5724,1.5729,1.571,1.5699,1.5691,1.5665,1.568,1.5671,1.5684,1.5637,1.5683,1.5674,1.5682,1.5683,1.568,1.5627,1.5625,1.5624,1.5623,0,1.5609,1.5624,1.5615,1.5612,1.5605,1.5603,1.5604,1.5595,1.563,1.5619,1.5606,1.56,1.5589,1.5576,1.5571,1.5576,1.5604,1.5609,1.5599,1.5589,1.5581,1.5584,1.573,1.5611,1.5612,1.5613,1.5614,1.5614,1.5519,1.55,1.5511,1.5501,1.5506,1.5506,1.549,1.5506,1.5496,1.549,1.551,1.5491,1.5498,1.5494,1.5496,1.5481,1.5502,1.5488,1.5484,1.548,1.5473,1.5585,1.5481,1.5481,1.5481,1.5482,1.5482,0,1.5403,1.5413,1.5403,1.5405,1.5396,1.5427,1.543,1.5421,1.5405,1.5409,1.5402,1.5386,1.5375,1.5391,1.5382,1.5367,1.538,1.5364,1.5365,1.5365,1.5456,1.5465,1.5354,1.5354,1.5354,1.5354,1.5354,1.5354,1.5341,1.5312,1.5328,1.5301,1.531,1.5294,1.5293,1.5294,1.5297,1.5279,1.5271,1.5282,1.5291,1.5284,1.5275,1.528,1.5274,1.5253,1.5262,1.5346,1.5359,1.5371,1.5379,1.5252,1.5252,1.5173,1.5172,1.5172]}]]